Location: Ergnies
(50.0854°N, 2.0375°E)
Time: 10:38:06
(UTC+00:00)

Lacrosse 5 rocket - Pass Details

Date: 14 January 2026
Orbit: 401 x 482 km, 57.0° (Epoch: 11 February)

Event Time Altitude Azimuth Distance (km) Brightness Sun altitude
Exits shadow 06:16:00 20° 319° (NW) 1,182 2.5 -13.8°
Maximum altitude 06:17:41 28° 0° (N) 955 2.4 -13.6°
Drops below altitude 10° 06:21:00 10° 61° (ENE) 1,687 4.4 -13.1°
Sets 06:23:24 0° 73° (ENE) 2,566 5.7 -12.7°
